| time (UTC) | temp C | wind direction | speed KPH | gust KPH | rain 1hr cm | rain 24hr cm | rain mn cm | humidity % | barometer mb |
| 20260506033309 | 8 | 99 | 0.0 | 1.6 | 0.00 | 0.00 | 0.00 | 92 | 1014.5 |
| 20260506032808 | 8 | 104 | 0.0 | 1.6 | 0.00 | 0.00 | 0.00 | 92 | 1014.6 |
| 20260506032309 | 8 | 292 | 0.0 | 0.0 | 0.00 | 0.00 | 0.00 | 92 | 1014.6 |
| 20260506031309 | 8 | 292 | 0.0 | 0.0 | 0.00 | 0.00 | 0.00 | 92 | 1014.6 |
| 20260506030808 | 8 | 292 | 0.0 | 0.0 | 0.00 | 0.00 | 0.00 | 92 | 1014.6 |
| 20260506030310 | 8 | 292 | 0.0 | 0.0 | 0.00 | 0.00 | 0.00 | 92 | 1014.6 |
| 20260506025813 | 8 | 292 | 0.0 | 0.0 | 0.00 | 0.00 | 0.00 | 92 | 1014.6 |
| 20260506025332 | 8 | 292 | 0.0 | 0.0 | 0.00 | 0.00 | 0.00 | 92 | 1014.6 |
| 20260506023808 | 8 | 292 | 0.0 | 0.0 | 0.00 | 0.00 | 0.00 | 92 | 1014.6 |
| 20260506023309 | 8 | 292 | 0.0 | 0.0 | 0.00 | 0.00 | 0.00 | 92 | 1014.7 |
| 20260506022809 | 8 | 292 | 0.0 | 0.0 | 0.00 | 0.00 | 0.00 | 91 | 1014.7 |
| 20260506022308 | 8 | 292 | 0.0 | 0.0 | 0.00 | 0.00 | 0.00 | 91 | 1014.7 |
| 20260506021810 | 8 | 292 | 0.0 | 0.0 | 0.00 | 0.00 | 0.00 | 91 | 1014.7 |
| 20260506021308 | 8 | 292 | 0.0 | 0.0 | 0.00 | 0.00 | 0.00 | 91 | 1014.7 |
| 20260506020810 | 8 | 292 | 0.0 | 0.0 | 0.00 | 0.00 | 0.00 | 91 | 1014.7 |
| 20260506015809 | 8 | 292 | 0.0 | 0.0 | 0.00 | 0.00 | 0.00 | 91 | 1014.7 |
| 20260506015309 | 8 | 292 | 0.0 | 0.0 | 0.00 | 0.00 | 0.00 | 91 | 1014.7 |
| 20260506013309 | 8 | 292 | 0.0 | 0.0 | 0.00 | 0.00 | 0.00 | 91 | 1014.8 |
| 20260506012809 | 8 | 294 | 0.0 | 0.0 | 0.00 | 0.00 | 0.00 | 91 | 1014.9 |
| 20260506012309 | 8 | 294 | 0.0 | 0.0 | 0.00 | 0.00 | 0.00 | 91 | 1014.9 |
| 20260506011809 | 8 | 294 | 0.0 | 0.0 | 0.00 | 0.00 | 0.00 | 91 | 1015.0 |
| 20260506011310 | 8 | 294 | 0.0 | 0.0 | 0.00 | 0.00 | 0.00 | 91 | 1015.0 |
| 20260506010809 | 8 | 294 | 0.0 | 1.6 | 0.00 | 0.00 | 0.00 | 91 | 1015.0 |
| 20260506010310 | 8 | 276 | 0.0 | 1.6 | 0.00 | 0.00 | 0.00 | 90 | 1015.1 |
| 20260506005809 | 9 | 275 | 0.0 | 1.6 | 0.00 | 0.00 | 0.00 | 90 | 1015.1 |
| 20260506005309 | 9 | 275 | 0.0 | 1.6 | 0.00 | 0.00 | 0.00 | 90 | 1015.0 |
| 20260506004810 | 9 | 275 | 0.0 | 1.6 | 0.00 | 0.00 | 0.00 | 90 | 1015.0 |
| 20260506004311 | 9 | 275 | 0.0 | 0.0 | 0.00 | 0.00 | 0.00 | 90 | 1015.0 |
| 20260506003815 | 9 | 275 | 0.0 | 0.0 | 0.00 | 0.00 | 0.00 | 90 | 1015.1 |
| 20260506003311 | 9 | 275 | 0.0 | 1.6 | 0.00 | 0.00 | 0.00 | 90 | 1015.1 |
| 20260506002809 | 9 | 273 | 0.0 | 1.6 | 0.00 | 0.00 | 0.00 | 90 | 1015.1 |
| 20260506002311 | 9 | 267 | 0.0 | 1.6 | 0.00 | 0.00 | 0.00 | 90 | 1015.1 |
| 20260506001809 | 9 | 263 | 0.0 | 1.6 | 0.00 | 0.00 | 0.00 | 90 | 1015.1 |
| 20260506001310 | 9 | 266 | 0.0 | 1.6 | 0.00 | 0.00 | 0.00 | 89 | 1015.1 |
| 20260506000809 | 9 | 266 | 0.0 | 1.6 | 0.00 | 0.00 | 0.00 | 89 | 1015.1 |
| 20260506000311 | 9 | 266 | 0.0 | 1.6 | 0.00 | 0.00 | 0.00 | 89 | 1015.2 |
| 20260505235309 | 9 | 275 | 0.0 | 1.6 | 0.00 | 0.00 | 0.00 | 88 | 1015.1 |
| 20260505234809 | 9 | 267 | 0.0 | 1.6 | 0.00 | 0.00 | 0.00 | 88 | 1015.1 |
| 20260505233810 | 9 | 224 | 0.0 | 0.0 | 0.00 | 0.00 | 0.00 | 87 | 1015.2 |
| 20260505232811 | 9 | 224 | 0.0 | 0.0 | 0.00 | 0.00 | 0.00 | 87 | 1015.3 |
| 20260505231311 | 10 | 224 | 0.0 | 0.0 | 0.00 | 0.00 | 0.00 | 87 | 1015.3 |
| 20260505230827 | 10 | 224 | 0.0 | 0.0 | 0.00 | 0.00 | 0.00 | 87 | 1015.3 |
| 20260505230310 | 10 | 224 | 0.0 | 0.0 | 0.00 | 0.00 | 0.00 | 87 | 1015.5 |
| 20260505225311 | 10 | 224 | 0.0 | 0.0 | 0.00 | 0.00 | 0.00 | 87 | 1015.5 |
| 20260505224810 | 10 | 224 | 0.0 | 0.0 | 0.00 | 0.00 | 0.00 | 86 | 1015.5 |
| 20260505223812 | 10 | 224 | 0.0 | 0.0 | 0.00 | 0.00 | 0.00 | 87 | 1015.6 |
| 20260505223311 | 10 | 224 | 0.0 | 1.6 | 0.00 | 0.00 | 0.00 | 87 | 1015.6 |
| 20260505222810 | 10 | 224 | 0.0 | 1.6 | 0.00 | 0.00 | 0.00 | 87 | 1015.7 |
| 20260505222310 | 10 | 140 | 0.0 | 0.0 | 0.00 | 0.00 | 0.00 | 86 | 1015.7 |
| 20260505221810 | 10 | 140 | 0.0 | 0.0 | 0.00 | 0.00 | 0.00 | 86 | 1015.7 |
| 20260505221311 | 10 | 140 | 0.0 | 0.0 | 0.00 | 0.00 | 0.00 | 86 | 1015.8 |
| 20260505220810 | 10 | 140 | 0.0 | 0.0 | 0.00 | 0.00 | 0.00 | 86 | 1015.7 |
| 20260505220312 | 10 | 140 | 0.0 | 0.0 | 0.00 | 0.00 | 0.00 | 87 | 1015.7 |
| 20260505215811 | 10 | 140 | 0.0 | 0.0 | 0.00 | 0.00 | 0.00 | 87 | 1015.7 |
| 20260505214310 | 10 | 127 | 0.0 | 1.6 | 0.00 | 0.00 | 0.00 | 87 | 1015.7 |
| 20260505213812 | 10 | 124 | 0.0 | 1.6 | 0.00 | 0.00 | 0.00 | 87 | 1015.7 |
| 20260505213313 | 10 | 118 | 0.0 | 1.6 | 0.00 | 0.00 | 0.00 | 88 | 1015.7 |
| 20260505212810 | 10 | 118 | 0.0 | 1.6 | 0.00 | 0.00 | 0.00 | 88 | 1015.7 |
| 20260505212311 | 10 | 120 | 0.0 | 1.6 | 0.00 | 0.00 | 0.00 | 87 | 1015.7 |
| 20260505211311 | 10 | 140 | 0.0 | 1.6 | 0.00 | 0.00 | 0.00 | 87 | 1015.7 |
| 20260505210311 | 10 | 137 | 0.0 | 1.6 | 0.00 | 0.00 | 0.00 | 87 | 1015.7 |
| 20260505205311 | 10 | 149 | 0.0 | 0.0 | 0.00 | 0.00 | 0.00 | 87 | 1015.7 |
| 20260505204811 | 10 | 163 | 0.0 | 1.6 | 0.00 | 0.00 | 0.00 | 86 | 1015.8 |
| 20260505203313 | 10 | 142 | 0.0 | 0.0 | 0.00 | 0.00 | 0.00 | 86 | 1015.7 |
| 20260505202812 | 10 | 145 | 0.0 | 1.6 | 0.00 | 0.00 | 0.00 | 86 | 1015.7 |
| 20260505202316 | 10 | 144 | 0.0 | 1.6 | 0.00 | 0.00 | 0.00 | 86 | 1015.7 |
| 20260505201811 | 10 | 143 | 0.0 | 0.0 | 0.00 | 0.00 | 0.00 | 86 | 1015.8 |
| 20260505201311 | 10 | 144 | 0.0 | 1.6 | 0.00 | 0.00 | 0.00 | 86 | 1015.8 |
| 20260505200811 | 10 | 126 | 0.0 | 1.6 | 0.00 | 0.00 | 0.00 | 86 | 1015.8 |
| 20260505200311 | 10 | 129 | 0.0 | 3.2 | 0.00 | 0.00 | 0.00 | 86 | 1015.8 |
| 20260505195811 | 10 | 149 | 0.0 | 3.2 | 0.00 | 0.00 | 0.00 | 86 | 1015.7 |
| 20260505195312 | 10 | 124 | 1.6 | 3.2 | 0.00 | 0.00 | 0.00 | 85 | 1015.7 |
| 20260505194811 | 10 | 144 | 0.0 | 1.6 | 0.00 | 0.00 | 0.00 | 85 | 1015.6 |
| 20260505194312 | 10 | 201 | 0.0 | 3.2 | 0.00 | 0.00 | 0.00 | 85 | 1015.6 |
| 20260505193813 | 10 | 161 | 0.0 | 3.2 | 0.00 | 0.00 | 0.00 | 85 | 1015.5 |
| 20260505193311 | 10 | 150 | 0.0 | 3.2 | 0.00 | 0.00 | 0.00 | 85 | 1015.5 |
| 20260505192812 | 10 | 129 | 0.0 | 1.6 | 0.00 | 0.00 | 0.00 | 85 | 1015.5 |
| 20260505192311 | 11 | 174 | 0.0 | 1.6 | 0.00 | 0.00 | 0.00 | 85 | 1015.6 |
| 20260505191812 | 11 | 150 | 0.0 | 1.6 | 0.00 | 0.00 | 0.00 | 85 | 1015.6 |
| 20260505191312 | 10 | 165 | 0.0 | 1.6 | 0.00 | 0.00 | 0.00 | 84 | 1015.6 |
| 20260505190312 | 11 | 132 | 0.0 | 1.6 | 0.00 | 0.00 | 0.00 | 84 | 1015.5 |
| 20260505185812 | 11 | 129 | 0.0 | 1.6 | 0.00 | 0.00 | 0.00 | 85 | 1015.5 |
| 20260505185312 | 11 | 132 | 0.0 | 1.6 | 0.00 | 0.00 | 0.00 | 84 | 1015.4 |
| 20260505184812 | 11 | 156 | 0.0 | 1.6 | 0.00 | 0.00 | 0.00 | 85 | 1015.5 |
| 20260505184312 | 11 | 145 | 0.0 | 1.6 | 0.00 | 0.00 | 0.00 | 84 | 1015.5 |
| 20260505183814 | 11 | 143 | 1.6 | 4.8 | 0.00 | 0.00 | 0.00 | 84 | 1015.4 |
| 20260505183313 | 11 | 160 | 0.0 | 3.2 | 0.00 | 0.00 | 0.00 | 84 | 1015.4 |
| 20260505182813 | 11 | 6 | 0.0 | 0.0 | 0.00 | 0.00 | 0.00 | 84 | 1015.4 |
| 20260505182312 | 11 | 131 | 0.0 | 1.6 | 0.00 | 0.00 | 0.00 | 84 | 1015.4 |
| 20260505181312 | 11 | 200 | 1.6 | 4.8 | 0.00 | 0.00 | 0.00 | 84 | 1015.3 |
| 20260505180813 | 11 | 156 | 3.2 | 9.7 | 0.00 | 0.00 | 0.00 | 84 | 1015.3 |
| 20260505180312 | 11 | 165 | 4.8 | 9.7 | 0.00 | 0.00 | 0.00 | 84 | 1015.4 |
| 20260505175812 | 11 | 143 | 1.6 | 8.0 | 0.00 | 0.00 | 0.00 | 84 | 1015.4 |
| 20260505175312 | 11 | 153 | 3.2 | 8.0 | 0.00 | 0.00 | 0.00 | 84 | 1015.5 |
| 20260505174812 | 11 | 143 | 3.2 | 9.7 | 0.00 | 0.00 | 0.00 | 83 | 1015.5 |
| 20260505174313 | 11 | 141 | 1.6 | 4.8 | 0.00 | 0.00 | 0.00 | 82 | 1015.5 |
| 20260505173814 | 11 | 110 | 3.2 | 8.0 | 0.00 | 0.00 | 0.00 | 80 | 1015.5 |
| 20260505172813 | 12 | 99 | 1.6 | 8.0 | 0.00 | 0.03 | 0.00 | 76 | 1015.6 |
| 20260505172313 | 12 | 114 | 0.0 | 1.6 | 0.00 | 0.03 | 0.00 | 76 | 1015.6 |
| 20260505171814 | 12 | 110 | 0.0 | 3.2 | 0.00 | 0.03 | 0.00 | 76 | 1015.5 |
| 20260505171313 | 12 | 126 | 0.0 | 1.6 | 0.00 | 0.03 | 0.00 | 77 | 1015.5 |
| 20260505170813 | 12 | 107 | 0.0 | 1.6 | 0.00 | 0.03 | 0.00 | 77 | 1015.5 |
| 20260505170312 | 12 | 128 | 0.0 | 1.6 | 0.00 | 0.03 | 0.00 | 77 | 1015.6 |
| 20260505165812 | 12 | 238 | 0.0 | 1.6 | 0.00 | 0.03 | 0.00 | 78 | 1015.6 |
| 20260505165314 | 12 | 282 | 1.6 | 4.8 | 0.00 | 0.03 | 0.00 | 77 | 1015.7 |
| 20260505164812 | 12 | 293 | 0.0 | 9.7 | 0.00 | 0.03 | 0.00 | 77 | 1015.7 |
| 20260505164313 | 12 | 310 | 4.8 | 8.0 | 0.00 | 0.03 | 0.00 | 76 | 1015.7 |
| 20260505163813 | 12 | 312 | 4.8 | 9.7 | 0.00 | 0.03 | 0.00 | 75 | 1015.8 |
| 20260505163315 | 12 | 319 | 3.2 | 9.7 | 0.00 | 0.03 | 0.00 | 76 | 1015.7 |
| 20260505162813 | 12 | 312 | 6.4 | 9.7 | 0.00 | 0.03 | 0.00 | 76 | 1015.7 |
| 20260505162312 | 12 | 314 | 3.2 | 9.7 | 0.00 | 0.03 | 0.00 | 76 | 1015.7 |
| 20260505161815 | 12 | 310 | 6.4 | 9.7 | 0.00 | 0.03 | 0.00 | 76 | 1015.7 |
| 20260505161314 | 12 | 313 | 6.4 | 9.7 | 0.00 | 0.03 | 0.00 | 75 | 1015.6 |
| 20260505160813 | 12 | 313 | 8.0 | 12.9 | 0.00 | 0.03 | 0.00 | 75 | 1015.6 |
| 20260505160314 | 13 | 313 | 8.0 | 11.3 | 0.00 | 0.03 | 0.00 | 75 | 1015.7 |
| 20260505153315 | 13 | 281 | 1.6 | 8.0 | 0.00 | 0.03 | 0.00 | 72 | 1015.8 |
| 20260505152815 | 13 | 308 | 4.8 | 11.3 | 0.00 | 0.03 | 0.00 | 72 | 1015.8 |
| 20260505152313 | 13 | 299 | 3.2 | 8.0 | 0.00 | 0.03 | 0.00 | 72 | 1015.8 |
| 20260505151814 | 13 | 279 | 1.6 | 9.7 | 0.00 | 0.03 | 0.00 | 73 | 1015.8 |
| 20260505150815 | 13 | 293 | 3.2 | 8.0 | 0.00 | 0.03 | 0.00 | 72 | 1015.8 |
| 20260505150315 | 13 | 306 | 4.8 | 9.7 | 0.00 | 0.03 | 0.00 | 72 | 1015.8 |
| 20260505140315 | 13 | 302 | 4.8 | 9.7 | 0.00 | 0.03 | 0.00 | 72 | 1016.2 |
| 20260505124315 | 13 | 296 | 3.2 | 9.7 | 0.00 | 0.03 | 0.00 | 65 | 1016.2 |
| 20260505123816 | 13 | 300 | 6.4 | 11.3 | 0.00 | 0.03 | 0.00 | 65 | 1016.2 |
| 20260505123317 | 13 | 298 | 4.8 | 9.7 | 0.00 | 0.03 | 0.00 | 66 | 1016.2 |
| 20260505122815 | 13 | 304 | 1.6 | 4.8 | 0.00 | 0.03 | 0.00 | 67 | 1016.3 |
| 20260505122315 | 13 | 307 | 4.8 | 11.3 | 0.00 | 0.03 | 0.00 | 66 | 1016.3 |
| 20260505121817 | 13 | 298 | 3.2 | 11.3 | 0.00 | 0.03 | 0.00 | 67 | 1016.3 |
| 20260505121314 | 13 | 312 | 4.8 | 11.3 | 0.00 | 0.03 | 0.00 | 66 | 1016.2 |
| 20260505120817 | 13 | 309 | 1.6 | 4.8 | 0.00 | 0.03 | 0.00 | 67 | 1016.2 |
| 20260505120315 | 13 | 259 | 1.6 | 8.0 | 0.00 | 0.03 | 0.00 | 67 | 1016.2 |
| 20260505115815 | 13 | 154 | 1.6 | 11.3 | 0.00 | 0.03 | 0.00 | 67 | 1016.2 |
| 20260505115316 | 13 | 129 | 1.6 | 9.7 | 0.00 | 0.03 | 0.00 | 68 | 1016.3 |
| 20260505114817 | 13 | 268 | 0.0 | 8.0 | 0.00 | 0.03 | 0.00 | 67 | 1016.3 |
| 20260505114315 | 13 | 242 | 1.6 | 9.7 | 0.00 | 0.03 | 0.00 | 67 | 1016.3 |
| 20260505113815 | 12 | 140 | 1.6 | 9.7 | 0.00 | 0.03 | 0.00 | 67 | 1016.3 |
| 20260505113316 | 12 | 118 | 0.0 | 9.7 | 0.00 | 0.03 | 0.00 | 67 | 1016.2 |
| 20260505112817 | 12 | 193 | 1.6 | 4.8 | 0.00 | 0.03 | 0.00 | 66 | 1016.3 |
| 20260505112315 | 12 | 105 | 3.2 | 8.0 | 0.00 | 0.03 | 0.00 | 66 | 1016.4 |
| 20260505111816 | 12 | 278 | 1.6 | 9.7 | 0.00 | 0.03 | 0.00 | 66 | 1016.4 |
| 20260505111316 | 12 | 239 | 3.2 | 8.0 | 0.00 | 0.03 | 0.00 | 66 | 1016.3 |
| 20260505110815 | 12 | 268 | 1.6 | 9.7 | 0.00 | 0.03 | 0.00 | 66 | 1016.4 |
| 20260505110316 | 12 | 308 | 6.4 | 12.9 | 0.00 | 0.03 | 0.00 | 65 | 1016.4 |
| 20260505101816 | 12 | 296 | 4.8 | 19.3 | 0.00 | 0.03 | 0.00 | 69 | 1016.5 |
| 20260505101316 | 12 | 302 | 4.8 | 11.3 | 0.00 | 0.03 | 0.00 | 69 | 1016.5 |
| 20260505100817 | 12 | 307 | 9.7 | 14.5 | 0.00 | 0.03 | 0.00 | 68 | 1016.5 |
| 20260505100316 | 12 | 288 | 3.2 | 11.3 | 0.00 | 0.03 | 0.00 | 70 | 1016.5 |
| 20260505095816 | 12 | 308 | 4.8 | 14.5 | 0.00 | 0.03 | 0.00 | 71 | 1016.4 |
| 20260505095316 | 12 | 301 | 8.0 | 12.9 | 0.00 | 0.03 | 0.00 | 73 | 1016.5 |
| 20260505094817 | 12 | 276 | 1.6 | 8.0 | 0.00 | 0.03 | 0.00 | 75 | 1016.5 |
| 20260505094317 | 11 | 324 | 3.2 | 9.7 | 0.00 | 0.03 | 0.00 | 73 | 1016.5 |
| 20260505093816 | 11 | 309 | 8.0 | 16.1 | 0.00 | 0.03 | 0.00 | 74 | 1016.5 |
| 20260505093317 | 11 | 316 | 8.0 | 12.9 | 0.00 | 0.03 | 0.00 | 74 | 1016.5 |
| 20260505092816 | 11 | 302 | 6.4 | 11.3 | 0.00 | 0.03 | 0.00 | 74 | 1016.6 |
| 20260505091817 | 11 | 304 | 6.4 | 9.7 | 0.00 | 0.03 | 0.00 | 77 | 1016.5 |
| 20260505091318 | 11 | 302 | 4.8 | 14.5 | 0.00 | 0.03 | 0.00 | 78 | 1016.5 |
| 20260505090817 | 11 | 318 | 4.8 | 11.3 | 0.00 | 0.03 | 0.00 | 78 | 1016.5 |
| 20260505090318 | 11 | 320 | 3.2 | 9.7 | 0.00 | 0.03 | 0.00 | 79 | 1016.4 |
| 20260505085817 | 11 | 311 | 4.8 | 11.3 | 0.00 | 0.03 | 0.00 | 80 | 1016.5 |
| 20260505085317 | 10 | 306 | 6.4 | 9.7 | 0.00 | 0.03 | 0.00 | 79 | 1016.5 |
| 20260505084818 | 10 | 314 | 3.2 | 12.9 | 0.00 | 0.03 | 0.00 | 80 | 1016.5 |
| 20260505084316 | 10 | 310 | 4.8 | 11.3 | 0.00 | 0.03 | 0.00 | 79 | 1016.5 |
| 20260505083818 | 10 | 306 | 4.8 | 9.7 | 0.00 | 0.03 | 0.00 | 79 | 1016.5 |
| 20260505083317 | 10 | 313 | 6.4 | 11.3 | 0.00 | 0.03 | 0.00 | 79 | 1016.5 |
| 20260505082817 | 10 | 314 | 9.7 | 14.5 | 0.00 | 0.03 | 0.00 | 79 | 1016.5 |
| 20260505082317 | 10 | 303 | 1.6 | 9.7 | 0.00 | 0.03 | 0.00 | 80 | 1016.5 |
| 20260505081817 | 10 | 304 | 3.2 | 11.3 | 0.00 | 0.03 | 0.00 | 80 | 1016.6 |
| 20260505081318 | 10 | 310 | 3.2 | 9.7 | 0.00 | 0.03 | 0.00 | 80 | 1016.5 |
| 20260505080317 | 10 | 298 | 3.2 | 9.7 | 0.00 | 0.03 | 0.00 | 82 | 1016.5 |
| 20260505075817 | 10 | 310 | 3.2 | 9.7 | 0.00 | 0.03 | 0.00 | 82 | 1016.5 |
| 20260505075317 | 10 | 311 | 4.8 | 11.3 | 0.00 | 0.03 | 0.00 | 82 | 1016.5 |
| 20260505074317 | 10 | 297 | 1.6 | 8.0 | 0.00 | 0.03 | 0.00 | 83 | 1016.5 |
| 20260505072817 | 9 | 308 | 3.2 | 9.7 | 0.00 | 0.03 | 0.00 | 84 | 1016.4 |
| 20260505072317 | 9 | 311 | 4.8 | 9.7 | 0.00 | 0.03 | 0.00 | 84 | 1016.4 |
| 20260505071318 | 9 | 312 | 4.8 | 9.7 | 0.00 | 0.03 | 0.00 | 85 | 1016.5 |
| 20260505070319 | 8 | 311 | 3.2 | 9.7 | 0.00 | 0.03 | 0.00 | 85 | 1016.5 |
| 20260505065818 | 8 | 308 | 4.8 | 9.7 | 0.00 | 0.03 | 0.00 | 85 | 1016.5 |
| 20260505065318 | 8 | 308 | 4.8 | 9.7 | 0.00 | 0.03 | 0.00 | 85 | 1016.6 |
| 20260505064318 | 8 | 307 | 4.8 | 9.7 | 0.00 | 0.03 | 0.00 | 86 | 1016.6 |
| 20260505063818 | 8 | 311 | 1.6 | 9.7 | 0.00 | 0.03 | 0.00 | 86 | 1016.6 |
| 20260505063317 | 8 | 311 | 4.8 | 9.7 | 0.00 | 0.03 | 0.00 | 86 | 1016.6 |
| 20260505062819 | 8 | 312 | 4.8 | 9.7 | 0.00 | 0.03 | 0.00 | 86 | 1016.6 |
| 20260505062319 | 8 | 312 | 4.8 | 9.7 | 0.00 | 0.03 | 0.00 | 86 | 1016.6 |
| 20260505061819 | 8 | 307 | 3.2 | 9.7 | 0.00 | 0.03 | 0.00 | 86 | 1016.6 |
| 20260505061318 | 8 | 312 | 4.8 | 9.7 | 0.00 | 0.03 | 0.00 | 86 | 1016.6 |
| 20260505060818 | 8 | 314 | 4.8 | 9.7 | 0.00 | 0.03 | 0.00 | 85 | 1016.5 |
| 20260505060318 | 8 | 314 | 3.2 | 9.7 | 0.00 | 0.03 | 0.00 | 85 | 1016.5 |
| 20260505055818 | 8 | 309 | 4.8 | 9.7 | 0.00 | 0.03 | 0.00 | 85 | 1016.6 |
| 20260505055318 | 8 | 311 | 4.8 | 9.7 | 0.00 | 0.03 | 0.00 | 85 | 1016.5 |
| 20260505054818 | 8 | 305 | 3.2 | 9.7 | 0.00 | 0.03 | 0.00 | 85 | 1016.6 |
| 20260505053827 | 8 | 311 | 4.8 | 9.7 | 0.00 | 0.03 | 0.00 | 85 | 1016.6 |
| 20260505053327 | 8 | 305 | 4.8 | 9.7 | 0.00 | 0.03 | 0.00 | 85 | 1016.6 |
| 20260505051830 | 8 | 312 | 1.6 | 9.7 | 0.00 | 0.03 | 0.00 | 84 | 1016.5 |
| 20260505050819 | 8 | 314 | 3.2 | 8.0 | 0.00 | 0.03 | 0.00 | 84 | 1016.4 |
| 20260505041320 | 7 | 306 | 0.0 | 1.6 | 0.00 | 0.03 | 0.00 | 86 | 1016.3 |
| 20260505040820 | 7 | 307 | 0.0 | 1.6 | 0.00 | 0.03 | 0.00 | 87 | 1016.3 |
| 20260505040320 | 7 | 278 | 0.0 | 1.6 | 0.00 | 0.03 | 0.00 | 87 | 1016.2 |
| 20260505035821 | 7 | 276 | 0.0 | 1.6 | 0.00 | 0.03 | 0.00 | 87 | 1016.2 |
| 20260505035320 | 7 | 276 | 0.0 | 1.6 | 0.00 | 0.03 | 0.00 | 87 | 1016.2 |
| 20260505034819 | 7 | 275 | 0.0 | 1.6 | 0.00 | 0.03 | 0.00 | 86 | 1016.3 |
| 20260505034320 | 7 | 275 | 0.0 | 1.6 | 0.00 | 0.03 | 0.00 | 86 | 1016.4 |